TimeCST,TemperatureF,Dew PointF,Humidity,Sea Level PressureIn,VisibilityMPH,Wind Direction,Wind SpeedMPH,Gust SpeedMPH,PrecipitationIn,Events,Conditions,WindDirDegrees,DateUTC
1:53 AM,39.0,37.9,96,29.80,6.0,NW,3.5,-,N/A,,Scattered Clouds,310,2013-03-05 07:53:00
2:46 AM,42.8,41.0,93,29.82,9.0,NW,6.9,-,N/A,,Overcast,310,2013-03-05 08:46:00
2:53 AM,43.0,41.0,93,29.83,9.0,NW,6.9,-,N/A,,Overcast,310,2013-03-05 08:53:00
3:22 AM,44.6,41.0,87,29.83,9.0,NW,15.0,-,N/A,,Overcast,320,2013-03-05 09:22:00
3:30 AM,44.6,39.2,81,29.83,9.0,NW,13.8,-,N/A,,Overcast,320,2013-03-05 09:30:00
3:53 AM,42.1,35.1,76,29.84,10.0,NNW,12.7,27.6,N/A,,Overcast,330,2013-03-05 09:53:00
4:05 AM,41.0,33.8,76,29.85,10.0,NW,9.2,-,N/A,,Overcast,320,2013-03-05 10:05:00
4:53 AM,37.9,32.0,79,29.88,8.0,NW,13.8,-,0.02,Rain,Light Rain,310,2013-03-05 10:53:00
6:09 AM,33.8,30.2,87,29.93,3.0,NW,12.7,24.2,0.01,Rain,Rain,310,2013-03-05 12:09:00
6:43 AM,33.8,30.2,87,29.93,2.0,NW,15.0,21.9,0.03,Snow,Light Snow,320,2013-03-05 12:43:00
6:50 AM,33.8,30.2,87,29.94,1.2,NW,12.7,20.7,0.03,Snow,Light Snow,310,2013-03-05 12:50:00
7:01 AM,33.8,30.2,87,29.94,1.2,NW,10.4,19.6,0.01,Snow,Light Snow,320,2013-03-05 13:01:00
7:20 AM,33.8,30.2,87,29.96,0.8,NW,13.8,23.0,0.01,Snow,Light Snow,310,2013-03-05 13:20:00
7:25 AM,33.8,30.2,87,29.96,1.2,WNW,12.7,24.2,0.01,Snow,Light Snow,300,2013-03-05 13:25:00
7:42 AM,33.8,30.2,87,29.97,1.8,NW,15.0,23.0,0.02,Snow,Light Snow,320,2013-03-05 13:42:00
7:53 AM,33.1,30.9,92,29.98,3.0,NW,15.0,20.7,0.03,Snow,Light Snow,320,2013-03-05 13:53:00
8:12 AM,33.8,30.2,87,29.97,10.0,NW,17.3,25.3,0.01,,Overcast,310,2013-03-05 14:12:00
8:53 AM,35.1,28.9,78,30.00,10.0,NW,13.8,29.9,0.04,,Overcast,320,2013-03-05 14:53:00
9:53 AM,35.1,28.0,76,30.03,10.0,NW,19.6,29.9,N/A,,Overcast,310,2013-03-05 15:53:00
10:53 AM,36.0,26.1,67,30.05,10.0,WNW,21.9,33.4,N/A,,Overcast,300,2013-03-05 16:53:00
11:27 AM,39.2,24.8,56,30.04,10.0,WNW,20.7,33.4,N/A,,Mostly Cloudy,290,2013-03-05 17:27:00
11:53 AM,37.9,21.9,53,30.06,10.0,WNW,19.6,32.2,N/A,,Overcast,300,2013-03-05 17:53:00
12:53 PM,39.9,19.9,45,30.06,10.0,NW,21.9,34.5,N/A,,Clear,310,2013-03-05 18:53:00
1:53 PM,41.0,19.9,43,30.05,10.0,WNW,20.7,42.6,N/A,,Clear,300,2013-03-05 19:53:00
2:53 PM,42.1,19.9,41,30.07,10.0,WNW,17.3,28.8,N/A,,Clear,300,2013-03-05 20:53:00
3:53 PM,41.0,19.0,41,30.09,10.0,NW,25.3,35.7,N/A,,Clear,310,2013-03-05 21:53:00
4:53 PM,39.0,19.9,46,30.11,10.0,NW,19.6,28.8,N/A,,Scattered Clouds,310,2013-03-05 22:53:00
5:53 PM,36.0,19.0,50,30.14,10.0,NW,13.8,29.9,N/A,,Mostly Cloudy,310,2013-03-05 23:53:00
6:53 PM,35.1,19.0,52,30.17,10.0,NW,16.1,29.9,N/A,,Mostly Cloudy,320,2013-03-06 00:53:00
7:53 PM,34.0,18.0,52,30.18,10.0,NW,21.9,31.1,N/A,,Overcast,310,2013-03-06 01:53:00
8:53 PM,32.0,18.0,56,30.20,10.0,WNW,15.0,23.0,N/A,,Partly Cloudy,300,2013-03-06 02:53:00
9:53 PM,32.0,19.0,59,30.22,10.0,NW,13.8,21.9,N/A,,Overcast,320,2013-03-06 03:53:00
10:53 PM,32.0,19.0,59,30.22,10.0,NW,11.5,25.3,N/A,,Overcast,320,2013-03-06 04:53:00
11:53 PM,32.0,19.0,59,30.22,10.0,NNW,15.0,25.3,N/A,,Overcast,330,2013-03-06 05:53:00